Location: Gälforsberget
(66.6500°N, 22.4167°E)
Time: 06:33:35
(UTC+00:00)

Cosmos 1980 - Pass Details

Date: 11 April 2026
Orbit: 839 x 844 km, 71.0° (Epoch: 12 May)

Event Time Altitude Azimuth Distance (km) Brightness Sun altitude
Rises 22:29:52 0° 239° (WSW) 3,394 6.5 -14.8°
Reaches altitude 10° 22:32:18 10° 241° (WSW) 2,461 5.8 -14.8°
Maximum altitude 22:37:58 80° 329° (NNW) 861 3.8 -14.7°
Drops below altitude 10° 22:43:39 10° 57° (ENE) 2,468 6.6 -14.7°
Sets 22:46:06 0° 59° (ENE) 3,405 7.4 -14.7°
